Time,TemperatureF,DewpointF,PressureIn,WindDirection,WindDirectionDegrees,WindSpeedMPH,WindSpeedGustMPH,Humidity,HourlyPrecipIn,Conditions,Clouds,dailyrainin,SoftwareType,DateUTC
2013-08-08 00:00:00,77.4,73.2,29.99,SSE,166,3.5,3.5,87,0.00,CLR,,0.00,WeatherDisplay:10.37,2013-08-08 04:00:00,
2013-08-08 00:01:00,77.4,73.2,29.99,SSE,159,3.5,3.5,87,0.00,CLR,,0.00,WeatherDisplay:10.37,2013-08-08 04:01:00,
2013-08-08 00:06:00,77.4,73.2,29.99,SE,135,0.0,0.0,87,0.00,CLR,,0.00,WeatherDisplay:10.37,2013-08-08 04:06:00,
2013-08-08 00:11:00,77.4,73.2,29.99,SE,138,3.5,0.0,87,0.00,CLR,,0.00,WeatherDisplay:10.37,2013-08-08 04:11:00,
2013-08-08 00:16:00,77.4,73.2,29.99,SE,141,3.5,0.0,87,0.00,CLR,,0.00,WeatherDisplay:10.37,2013-08-08 04:16:00,
2013-08-08 00:21:00,77.4,73.2,29.99,SE,134,3.5,3.5,87,0.00,CLR,,0.00,WeatherDisplay:10.37,2013-08-08 04:21:00,
2013-08-08 00:26:00,77.2,73.0,29.99,SE,127,3.5,3.5,87,0.00,CLR,,0.00,WeatherDisplay:10.37,2013-08-08 04:26:00,
2013-08-08 00:31:00,77.2,73.0,29.99,SE,137,3.5,3.5,87,0.00,CLR,,0.00,WeatherDisplay:10.37,2013-08-08 04:31:00,
2013-08-08 00:36:00,77.2,73.0,29.99,SE,137,0.0,0.0,87,0.00,CLR,,0.00,WeatherDisplay:10.37,2013-08-08 04:36:00,
2013-08-08 00:41:00,77.2,73.0,29.99,SE,138,3.5,0.0,87,0.00,CLR,,0.00,WeatherDisplay:10.37,2013-08-08 04:41:00,
2013-08-08 00:46:00,77.0,72.8,29.99,SE,138,0.0,0.0,87,0.00,CLR,,0.00,WeatherDisplay:10.37,2013-08-08 04:46:00,
2013-08-08 00:51:00,77.0,72.8,29.99,SE,138,0.0,0.0,87,0.00,CLR,,0.00,WeatherDisplay:10.37,2013-08-08 04:51:00,
2013-08-08 00:56:00,77.0,72.8,29.99,SE,138,0.0,0.0,87,0.00,CLR,,0.00,WeatherDisplay:10.37,2013-08-08 04:56:00,
2013-08-08 01:01:00,76.8,73.7,29.99,SE,138,0.0,0.0,90,0.00,CLR,,0.00,WeatherDisplay:10.37,2013-08-08 05:01:00,
2013-08-08 01:06:00,76.8,73.7,29.99,SE,138,0.0,0.0,90,0.00,CLR,,0.00,WeatherDisplay:10.37,2013-08-08 05:06:00,
2013-08-08 01:11:00,76.8,73.7,29.99,SE,138,0.0,0.0,90,0.00,CLR,,0.00,WeatherDisplay:10.37,2013-08-08 05:11:00,
2013-08-08 01:16:00,76.6,73.5,29.99,SE,138,0.0,0.0,90,0.00,CLR,,0.00,WeatherDisplay:10.37,2013-08-08 05:16:00,
2013-08-08 01:21:00,76.6,73.5,29.99,SE,138,0.0,0.0,90,0.00,CLR,,0.00,WeatherDisplay:10.37,2013-08-08 05:21:00,
2013-08-08 01:26:00,76.6,73.5,29.99,SE,138,0.0,0.0,90,0.00,CLR,,0.00,WeatherDisplay:10.37,2013-08-08 05:26:00,
2013-08-08 01:31:00,76.5,73.3,29.99,SE,138,0.0,0.0,90,0.00,CLR,,0.00,WeatherDisplay:10.37,2013-08-08 05:31:00,
2013-08-08 01:36:00,76.5,73.3,29.99,SE,138,0.0,0.0,90,0.00,CLR,,0.00,WeatherDisplay:10.37,2013-08-08 05:36:00,
2013-08-08 01:41:00,76.5,73.3,29.99,SE,138,0.0,0.0,90,0.00,CLR,,0.00,WeatherDisplay:10.37,2013-08-08 05:41:00,
2013-08-08 01:46:00,76.3,73.1,29.99,SE,138,0.0,0.0,90,0.00,CLR,,0.00,WeatherDisplay:10.37,2013-08-08 05:46:00,
2013-08-08 01:51:00,76.3,73.1,29.99,SE,138,0.0,0.0,90,0.00,CLR,,0.00,WeatherDisplay:10.37,2013-08-08 05:51:00,
2013-08-08 01:56:00,76.1,73.0,29.99,SE,138,0.0,0.0,90,0.00,CLR,,0.00,WeatherDisplay:10.37,2013-08-08 05:56:00,
2013-08-08 02:01:00,75.9,72.8,29.99,SE,138,0.0,0.0,90,0.00,CLR,,0.00,WeatherDisplay:10.37,2013-08-08 06:01:00,
2013-08-08 02:06:00,75.7,72.6,29.99,SE,138,0.0,0.0,90,0.00,CLR,,0.00,WeatherDisplay:10.37,2013-08-08 06:06:00,
2013-08-08 02:11:00,75.7,72.6,29.99,SE,138,0.0,0.0,90,0.00,CLR,,0.00,WeatherDisplay:10.37,2013-08-08 06:11:00,
2013-08-08 02:16:00,75.6,72.4,29.99,SE,138,0.0,0.0,90,0.00,CLR,,0.00,WeatherDisplay:10.37,2013-08-08 06:16:00,
2013-08-08 02:21:00,75.4,72.2,29.99,SE,138,0.0,0.0,90,0.00,CLR,,0.00,WeatherDisplay:10.37,2013-08-08 06:21:00,
2013-08-08 02:26:00,75.4,72.2,29.99,SE,138,0.0,0.0,90,0.00,CLR,,0.00,WeatherDisplay:10.37,2013-08-08 06:26:00,
2013-08-08 02:31:00,75.4,72.2,29.99,SE,138,0.0,0.0,90,0.00,CLR,,0.00,WeatherDisplay:10.37,2013-08-08 06:31:00,
2013-08-08 02:36:00,75.4,72.2,29.99,SE,138,0.0,0.0,90,0.00,CLR,,0.00,WeatherDisplay:10.37,2013-08-08 06:36:00,
2013-08-08 02:41:00,75.4,72.2,29.99,SE,138,0.0,0.0,90,0.00,CLR,,0.00,WeatherDisplay:10.37,2013-08-08 06:41:00,
2013-08-08 02:46:00,75.4,72.2,29.99,SE,138,0.0,0.0,90,0.00,CLR,,0.00,WeatherDisplay:10.37,2013-08-08 06:46:00,
2013-08-08 02:52:00,75.2,72.1,29.99,SE,138,0.0,0.0,90,0.00,CLR,,0.00,WeatherDisplay:10.37,2013-08-08 06:52:00,
2013-08-08 02:57:00,75.2,72.1,29.99,SE,138,0.0,0.0,90,0.00,CLR,,0.00,WeatherDisplay:10.37,2013-08-08 06:57:00,
2013-08-08 03:02:00,75.2,72.1,29.98,SE,138,0.0,0.0,90,0.00,SCT,,0.00,WeatherDisplay:10.37,2013-08-08 07:02:00,
2013-08-08 03:07:00,75.2,72.1,29.98,SE,138,0.0,0.0,90,0.00,SCT,,0.00,WeatherDisplay:10.37,2013-08-08 07:07:00,
2013-08-08 03:12:00,75.0,71.9,29.98,SE,138,0.0,0.0,90,0.00,SCT,,0.00,WeatherDisplay:10.37,2013-08-08 07:12:00,
2013-08-08 03:17:00,75.0,71.9,29.98,SE,138,0.0,0.0,90,0.00,SCT,,0.00,WeatherDisplay:10.37,2013-08-08 07:17:00,
2013-08-08 03:22:00,74.8,71.7,29.98,SE,138,0.0,0.0,90,0.00,SCT,,0.00,WeatherDisplay:10.37,2013-08-08 07:22:00,
2013-08-08 03:27:00,74.8,71.7,29.98,SE,138,0.0,0.0,90,0.00,SCT,,0.00,WeatherDisplay:10.37,2013-08-08 07:27:00,
2013-08-08 03:32:00,74.8,71.7,29.98,SE,138,0.0,0.0,90,0.00,SCT,,0.00,WeatherDisplay:10.37,2013-08-08 07:32:00,
2013-08-08 03:37:00,74.8,71.7,29.98,SE,138,0.0,0.0,90,0.00,SCT,,0.00,WeatherDisplay:10.37,2013-08-08 07:37:00,
2013-08-08 03:42:00,74.8,71.7,29.98,SE,138,0.0,0.0,90,0.00,SCT,,0.00,WeatherDisplay:10.37,2013-08-08 07:42:00,
2013-08-08 03:47:00,74.8,71.7,29.98,SE,138,0.0,0.0,90,0.00,SCT,,0.00,WeatherDisplay:10.37,2013-08-08 07:47:00,
2013-08-08 03:52:00,74.7,71.5,29.98,SE,138,0.0,0.0,90,0.00,SCT,,0.00,WeatherDisplay:10.37,2013-08-08 07:52:00,
2013-08-08 03:57:00,74.7,71.5,29.98,SE,138,0.0,0.0,90,0.00,SCT,,0.00,WeatherDisplay:10.37,2013-08-08 07:57:00,
2013-08-08 04:02:00,74.5,71.4,29.97,SE,138,0.0,0.0,90,0.00,CLR,,0.00,WeatherDisplay:10.37,2013-08-08 08:02:00,
2013-08-08 04:07:00,74.3,71.2,29.97,SE,138,0.0,0.0,90,0.00,CLR,,0.00,WeatherDisplay:10.37,2013-08-08 08:07:00,
2013-08-08 04:12:00,74.5,71.4,29.97,SE,138,0.0,0.0,90,0.00,CLR,,0.00,WeatherDisplay:10.37,2013-08-08 08:12:00,
2013-08-08 04:17:00,74.5,71.4,29.97,SE,138,0.0,0.0,90,0.00,CLR,,0.00,WeatherDisplay:10.37,2013-08-08 08:17:00,
2013-08-08 04:22:00,74.5,71.4,29.97,SE,138,0.0,0.0,90,0.00,CLR,,0.00,WeatherDisplay:10.37,2013-08-08 08:22:00,
2013-08-08 04:27:00,74.5,71.4,29.97,SE,138,0.0,0.0,90,0.00,CLR,,0.00,WeatherDisplay:10.37,2013-08-08 08:27:00,
2013-08-08 04:32:00,74.5,71.4,29.97,SE,138,0.0,0.0,90,0.00,CLR,,0.00,WeatherDisplay:10.37,2013-08-08 08:32:00,
2013-08-08 04:37:00,74.3,71.2,29.97,SE,138,0.0,0.0,90,0.00,CLR,,0.00,WeatherDisplay:10.37,2013-08-08 08:37:00,
2013-08-08 04:42:00,74.5,71.4,29.97,SE,138,0.0,0.0,90,0.00,CLR,,0.00,WeatherDisplay:10.37,2013-08-08 08:42:00,
2013-08-08 04:47:00,74.3,71.2,29.97,SE,138,0.0,0.0,90,0.00,CLR,,0.00,WeatherDisplay:10.37,2013-08-08 08:47:00,
2013-08-08 04:52:00,74.5,71.4,29.97,SE,138,0.0,0.0,90,0.00,CLR,,0.00,WeatherDisplay:10.37,2013-08-08 08:52:00,
2013-08-08 04:57:00,74.5,71.4,29.97,SE,138,0.0,0.0,90,0.00,CLR,,0.00,WeatherDisplay:10.37,2013-08-08 08:57:00,
2013-08-08 05:02:00,74.5,72.3,29.98,SE,138,0.0,0.0,93,0.00,CLR,,0.00,WeatherDisplay:10.37,2013-08-08 09:02:00,
2013-08-08 05:07:00,74.3,72.1,29.98,SE,138,0.0,0.0,93,0.00,CLR,,0.00,WeatherDisplay:10.37,2013-08-08 09:07:00,
2013-08-08 05:12:00,74.3,72.1,29.98,SE,138,0.0,0.0,93,0.00,CLR,,0.00,WeatherDisplay:10.37,2013-08-08 09:12:00,
2013-08-08 05:17:00,74.3,72.1,29.98,SE,138,0.0,0.0,93,0.00,CLR,,0.00,WeatherDisplay:10.37,2013-08-08 09:17:00,
2013-08-08 05:22:00,74.3,72.1,29.98,SE,138,0.0,0.0,93,0.00,CLR,,0.00,WeatherDisplay:10.37,2013-08-08 09:22:00,
2013-08-08 05:27:00,74.3,72.1,29.98,SE,138,0.0,0.0,93,0.00,CLR,,0.00,WeatherDisplay:10.37,2013-08-08 09:27:00,
2013-08-08 05:32:00,74.5,72.3,29.98,SE,138,0.0,0.0,93,0.00,CLR,,0.00,WeatherDisplay:10.37,2013-08-08 09:32:00,
2013-08-08 05:37:00,74.5,72.3,29.98,SE,138,0.0,0.0,93,0.00,CLR,,0.00,WeatherDisplay:10.37,2013-08-08 09:37:00,
2013-08-08 05:42:00,74.5,72.3,29.98,SE,138,0.0,0.0,93,0.00,CLR,,0.00,WeatherDisplay:10.37,2013-08-08 09:42:00,
2013-08-08 05:47:00,74.5,72.3,29.98,SE,138,0.0,0.0,93,0.00,CLR,,0.00,WeatherDisplay:10.37,2013-08-08 09:47:00,
2013-08-08 05:52:00,74.5,72.3,29.98,SE,138,0.0,0.0,93,0.00,CLR,,0.00,WeatherDisplay:10.37,2013-08-08 09:52:00,
2013-08-08 05:57:00,74.5,72.3,29.98,SE,138,0.0,0.0,93,0.00,CLR,,0.00,WeatherDisplay:10.37,2013-08-08 09:57:00,
2013-08-08 06:02:00,74.5,72.3,29.97,SE,138,0.0,0.0,93,0.00,CLR,,0.00,WeatherDisplay:10.37,2013-08-08 10:02:00,
2013-08-08 06:07:00,74.5,72.3,29.97,SE,138,0.0,0.0,93,0.00,CLR,,0.00,WeatherDisplay:10.37,2013-08-08 10:07:00,
2013-08-08 06:12:00,74.5,72.3,29.97,SE,138,0.0,0.0,93,0.00,CLR,,0.00,WeatherDisplay:10.37,2013-08-08 10:12:00,
2013-08-08 06:17:00,74.5,72.3,29.97,SE,138,0.0,0.0,93,0.00,CLR,,0.00,WeatherDisplay:10.37,2013-08-08 10:17:00,
2013-08-08 06:22:00,74.3,72.1,29.97,SE,138,0.0,0.0,93,0.00,CLR,,0.00,WeatherDisplay:10.37,2013-08-08 10:22:00,
2013-08-08 06:27:00,74.3,72.1,29.97,SE,138,0.0,0.0,93,0.00,CLR,,0.00,WeatherDisplay:10.37,2013-08-08 10:27:00,
2013-08-08 06:32:00,74.3,72.1,29.97,SE,138,0.0,0.0,93,0.00,CLR,,0.00,WeatherDisplay:10.37,2013-08-08 10:32:00,
2013-08-08 06:37:00,74.3,72.1,29.97,SE,138,0.0,0.0,93,0.00,CLR,,0.00,WeatherDisplay:10.37,2013-08-08 10:37:00,
2013-08-08 06:42:00,74.3,72.1,29.97,SE,138,0.0,0.0,93,0.00,CLR,,0.00,WeatherDisplay:10.37,2013-08-08 10:42:00,
2013-08-08 06:47:00,74.3,72.1,29.97,SE,138,0.0,0.0,93,0.00,CLR,,0.00,WeatherDisplay:10.37,2013-08-08 10:47:00,
2013-08-08 06:52:00,74.3,72.1,29.97,SE,138,0.0,0.0,93,0.00,CLR,,0.00,WeatherDisplay:10.37,2013-08-08 10:52:00,
2013-08-08 06:57:00,74.3,72.1,29.97,SE,138,0.0,0.0,93,0.00,CLR,,0.00,WeatherDisplay:10.37,2013-08-08 10:57:00,
2013-08-08 07:02:00,74.3,72.1,29.99,SE,138,0.0,0.0,93,0.00,CLR,,0.00,WeatherDisplay:10.37,2013-08-08 11:02:00,
2013-08-08 07:07:00,74.5,72.3,29.99,SE,138,0.0,0.0,93,0.00,CLR,,0.00,WeatherDisplay:10.37,2013-08-08 11:07:00,
2013-08-08 07:12:00,74.5,72.3,29.99,SE,138,0.0,0.0,93,0.00,CLR,,0.00,WeatherDisplay:10.37,2013-08-08 11:12:00,
2013-08-08 07:17:00,74.7,72.5,29.99,SE,138,0.0,0.0,93,0.00,CLR,,0.00,WeatherDisplay:10.37,2013-08-08 11:17:00,
2013-08-08 07:22:00,74.8,72.7,29.99,SE,138,0.0,0.0,93,0.00,CLR,,0.00,WeatherDisplay:10.37,2013-08-08 11:22:00,
2013-08-08 07:27:00,75.0,72.9,29.99,SE,138,0.0,0.0,93,0.00,CLR,,0.00,WeatherDisplay:10.37,2013-08-08 11:27:00,
2013-08-08 07:32:00,75.2,73.0,29.99,SE,138,0.0,0.0,93,0.00,CLR,,0.00,WeatherDisplay:10.37,2013-08-08 11:32:00,
2013-08-08 07:37:00,75.4,73.2,29.99,SE,138,0.0,0.0,93,0.00,CLR,,0.00,WeatherDisplay:10.37,2013-08-08 11:37:00,
2013-08-08 07:42:00,75.7,73.6,29.99,SE,138,0.0,0.0,93,0.00,CLR,,0.00,WeatherDisplay:10.37,2013-08-08 11:42:00,
2013-08-08 07:47:00,75.7,73.6,29.99,SE,138,0.0,0.0,93,0.00,CLR,,0.00,WeatherDisplay:10.37,2013-08-08 11:47:00,
2013-08-08 07:52:00,76.1,73.9,29.99,SE,138,0.0,0.0,93,0.00,CLR,,0.00,WeatherDisplay:10.37,2013-08-08 11:52:00,
2013-08-08 07:57:00,76.3,74.1,29.99,SE,138,0.0,0.0,93,0.00,CLR,,0.00,WeatherDisplay:10.37,2013-08-08 11:57:00,
2013-08-08 08:02:00,76.5,74.3,29.99,SE,138,0.0,0.0,93,0.00,CLR,,0.00,WeatherDisplay:10.37,2013-08-08 12:02:00,
2013-08-08 08:07:00,76.8,74.6,29.99,SE,138,0.0,0.0,93,0.00,CLR,,0.00,WeatherDisplay:10.37,2013-08-08 12:07:00,
2013-08-08 08:12:00,77.5,75.4,29.99,SE,138,0.0,0.0,93,0.00,CLR,,0.00,WeatherDisplay:10.37,2013-08-08 12:12:00,
2013-08-08 08:17:00,78.1,75.9,29.99,SE,140,2.3,0.0,93,0.00,CLR,,0.00,WeatherDisplay:10.37,2013-08-08 12:17:00,
2013-08-08 08:22:00,78.6,76.4,29.99,SSE,164,3.1,0.0,93,0.00,CLR,,0.00,WeatherDisplay:10.37,2013-08-08 12:22:00,
2013-08-08 08:27:00,79.3,77.1,29.99,SSE,164,4.6,4.6,93,0.00,CLR,,0.00,WeatherDisplay:10.37,2013-08-08 12:27:00,
2013-08-08 08:32:00,79.9,77.7,29.99,South,171,0.0,0.0,93,0.00,CLR,,0.00,WeatherDisplay:10.37,2013-08-08 12:32:00,
2013-08-08 08:37:00,80.8,78.6,29.99,SE,144,0.0,0.0,93,0.00,CLR,,0.00,WeatherDisplay:10.37,2013-08-08 12:37:00,
2013-08-08 08:42:00,81.3,79.1,29.99,SSE,154,3.6,0.0,93,0.00,CLR,,0.00,WeatherDisplay:10.37,2013-08-08 12:42:00,
2013-08-08 08:47:00,81.9,79.6,29.99,SE,144,3.5,3.5,93,0.00,CLR,,0.00,WeatherDisplay:10.37,2013-08-08 12:47:00,
2013-08-08 08:53:00,82.6,80.3,29.99,SSE,164,3.5,3.5,93,0.00,CLR,,0.00,WeatherDisplay:10.37,2013-08-08 12:53:00,
2013-08-08 08:58:00,83.3,81.1,29.99,SSE,153,5.8,5.8,93,0.00,CLR,,0.00,WeatherDisplay:10.37,2013-08-08 12:58:00,
2013-08-08 09:03:00,83.5,77.4,30.00,SSE,149,5.8,5.8,82,0.00,CLR,,0.00,WeatherDisplay:10.37,2013-08-08 13:03:00,
2013-08-08 09:08:00,83.8,77.8,30.00,SSE,163,4.0,0.0,82,0.00,CLR,,0.00,WeatherDisplay:10.37,2013-08-08 13:08:00,
2013-08-08 09:13:00,83.8,77.8,30.00,SSE,167,6.3,6.3,82,0.00,CLR,,0.00,WeatherDisplay:10.37,2013-08-08 13:13:00,
2013-08-08 09:18:00,84.0,77.9,30.00,SSW,195,5.8,5.8,82,0.00,CLR,,0.00,WeatherDisplay:10.37,2013-08-08 13:18:00,
2013-08-08 09:23:00,84.2,78.1,30.00,South,173,4.6,4.6,82,0.00,CLR,,0.00,WeatherDisplay:10.37,2013-08-08 13:23:00,
2013-08-08 09:28:00,84.6,78.5,30.00,South,177,3.5,3.5,82,0.00,CLR,,0.00,WeatherDisplay:10.37,2013-08-08 13:28:00,
2013-08-08 09:33:00,85.3,79.2,30.00,SSE,168,5.8,5.8,82,0.00,CLR,,0.00,WeatherDisplay:10.37,2013-08-08 13:33:00,
2013-08-08 09:38:00,86.5,80.4,30.00,WSW,245,5.8,5.8,82,0.00,CLR,,0.00,WeatherDisplay:10.37,2013-08-08 13:38:00,
2013-08-08 09:43:00,86.0,79.9,30.00,SSE,156,8.1,8.1,82,0.00,CLR,,0.00,WeatherDisplay:10.37,2013-08-08 13:43:00,
2013-08-08 09:48:00,86.0,79.9,30.00,SE,129,9.2,9.2,82,0.00,CLR,,0.00,WeatherDisplay:10.37,2013-08-08 13:48:00,
2013-08-08 09:53:00,86.4,80.2,30.00,SE,137,5.8,6.3,82,0.00,CLR,,0.00,WeatherDisplay:10.37,2013-08-08 13:53:00,
2013-08-08 09:58:00,86.5,80.4,30.00,SSE,164,5.8,5.8,82,0.00,CLR,,0.00,WeatherDisplay:10.37,2013-08-08 13:58:00,
2013-08-08 10:03:00,86.4,80.2,30.00,SSW,195,8.1,8.1,82,0.00,CLR,,0.00,WeatherDisplay:10.37,2013-08-08 14:03:00,
2013-08-08 10:08:00,86.2,80.0,30.00,SSE,168,9.2,9.2,82,0.00,CLR,,0.00,WeatherDisplay:10.37,2013-08-08 14:08:00,
2013-08-08 10:13:00,86.0,79.9,30.00,South,177,5.8,5.8,82,0.00,CLR,,0.00,WeatherDisplay:10.37,2013-08-08 14:13:00,
2013-08-08 10:18:00,86.4,80.2,30.00,South,181,5.8,5.8,82,0.00,CLR,,0.00,WeatherDisplay:10.37,2013-08-08 14:18:00,
2013-08-08 10:23:00,87.3,81.1,30.00,SSE,162,8.1,8.1,82,0.00,CLR,,0.00,WeatherDisplay:10.37,2013-08-08 14:23:00,
2013-08-08 10:28:00,87.1,80.9,30.00,SSE,162,5.8,5.8,82,0.00,CLR,,0.00,WeatherDisplay:10.37,2013-08-08 14:28:00,
2013-08-08 10:33:00,87.3,81.1,30.00,South,176,10.4,10.4,82,0.00,CLR,,0.00,WeatherDisplay:10.37,2013-08-08 14:33:00,
2013-08-08 10:38:00,88.0,81.8,30.00,South,179,5.8,5.8,82,0.00,CLR,,0.00,WeatherDisplay:10.37,2013-08-08 14:38:00,
2013-08-08 10:43:00,88.3,82.1,30.00,SE,135,9.2,9.2,82,0.00,CLR,,0.00,WeatherDisplay:10.37,2013-08-08 14:43:00,
2013-08-08 10:48:00,88.7,82.5,30.00,South,170,8.3,8.3,82,0.00,CLR,,0.00,WeatherDisplay:10.37,2013-08-08 14:48:00,
2013-08-08 10:53:00,88.9,82.7,30.00,SSW,198,5.8,5.8,82,0.00,CLR,,0.00,WeatherDisplay:10.37,2013-08-08 14:53:00,
2013-08-08 10:58:00,89.8,83.5,30.00,South,174,3.5,3.5,82,0.00,CLR,,0.00,WeatherDisplay:10.37,2013-08-08 14:58:00,
2013-08-08 11:03:00,90.3,76.0,30.02,South,181,8.1,8.1,63,0.00,FEW,,0.00,WeatherDisplay:10.37,2013-08-08 15:03:00,
2013-08-08 11:08:00,90.7,76.3,30.02,South,177,8.1,8.1,63,0.00,FEW,,0.00,WeatherDisplay:10.37,2013-08-08 15:08:00,
2013-08-08 11:13:00,90.5,76.2,30.02,South,170,8.1,8.1,63,0.00,FEW,,0.00,WeatherDisplay:10.37,2013-08-08 15:13:00,
2013-08-08 11:18:00,90.1,75.8,30.02,SSE,155,8.1,8.1,63,0.00,FEW,,0.00,WeatherDisplay:10.37,2013-08-08 15:18:00,
2013-08-08 11:23:00,90.1,75.8,30.02,SSW,197,5.8,5.8,63,0.00,FEW,,0.00,WeatherDisplay:10.37,2013-08-08 15:23:00,
2013-08-08 11:28:00,90.7,76.3,30.02,SSE,160,9.2,9.2,63,0.00,FEW,,0.00,WeatherDisplay:10.37,2013-08-08 15:28:00,
2013-08-08 11:33:00,90.9,76.5,30.02,SW,214,5.8,5.8,63,0.00,FEW,,0.00,WeatherDisplay:10.37,2013-08-08 15:33:00,
2013-08-08 11:38:00,91.0,76.7,30.02,East,87,5.8,5.8,63,0.00,FEW,,0.00,WeatherDisplay:10.37,2013-08-08 15:38:00,
2013-08-08 11:43:00,89.8,75.5,30.02,SSW,197,6.9,6.9,63,0.00,FEW,,0.00,WeatherDisplay:10.37,2013-08-08 15:43:00,
2013-08-08 11:48:00,90.0,75.7,30.02,SSE,156,8.1,8.1,63,0.00,FEW,,0.00,WeatherDisplay:10.37,2013-08-08 15:48:00,
2013-08-08 11:53:00,89.6,75.3,30.02,SW,219,9.2,9.2,63,0.00,FEW,,0.00,WeatherDisplay:10.37,2013-08-08 15:53:00,
2013-08-08 11:58:00,89.4,75.2,30.02,WSW,254,8.1,8.1,63,0.00,FEW,,0.00,WeatherDisplay:10.37,2013-08-08 15:58:00,
2013-08-08 12:03:00,89.8,75.5,30.02,South,171,9.2,9.2,63,0.00,FEW,,0.00,WeatherDisplay:10.37,2013-08-08 16:03:00,
2013-08-08 12:08:00,89.8,75.5,30.02,South,190,9.2,9.2,63,0.00,FEW,,0.00,WeatherDisplay:10.37,2013-08-08 16:08:00,
2013-08-08 12:13:00,90.5,76.2,30.02,WSW,258,7.2,7.2,63,0.00,FEW,,0.00,WeatherDisplay:10.37,2013-08-08 16:13:00,
2013-08-08 12:18:00,91.2,76.9,30.02,SE,134,5.8,5.8,63,0.00,FEW,,0.00,WeatherDisplay:10.37,2013-08-08 16:18:00,
2013-08-08 12:23:00,91.0,76.7,30.02,SSE,158,5.8,5.8,63,0.00,FEW,,0.00,WeatherDisplay:10.37,2013-08-08 16:23:00,
2013-08-08 12:28:00,91.2,76.9,30.02,SE,135,8.1,8.1,63,0.00,FEW,,0.00,WeatherDisplay:10.37,2013-08-08 16:28:00,
2013-08-08 12:33:00,91.6,77.2,30.02,SSE,165,6.9,6.9,63,0.00,FEW,,0.00,WeatherDisplay:10.37,2013-08-08 16:33:00,
2013-08-08 12:38:00,91.6,77.2,30.02,South,169,9.2,9.2,63,0.00,FEW,,0.00,WeatherDisplay:10.37,2013-08-08 16:38:00,
2013-08-08 12:43:00,90.9,76.5,30.02,ESE,111,10.5,10.5,63,0.00,FEW,,0.00,WeatherDisplay:10.37,2013-08-08 16:43:00,
2013-08-08 12:48:00,89.1,74.8,30.02,SSW,197,8.1,8.1,63,0.00,FEW,,0.00,WeatherDisplay:10.37,2013-08-08 16:48:00,
2013-08-08 12:53:00,86.0,71.9,30.02,SE,142,8.1,8.1,63,0.00,FEW,,0.00,WeatherDisplay:10.37,2013-08-08 16:53:00,
2013-08-08 12:58:00,85.5,71.4,30.02,SE,144,5.8,5.8,63,0.00,FEW,,0.00,WeatherDisplay:10.37,2013-08-08 16:58:00,
2013-08-08 13:03:00,86.2,67.0,30.02,South,184,5.8,5.8,53,0.00,SCT,,0.00,WeatherDisplay:10.37,2013-08-08 17:03:00,
2013-08-08 13:08:00,86.9,67.7,30.02,South,170,8.1,8.1,53,0.00,SCT,,0.00,WeatherDisplay:10.37,2013-08-08 17:08:00,
2013-08-08 13:13:00,87.6,68.4,30.02,SE,138,5.8,5.8,53,0.00,SCT,,0.00,WeatherDisplay:10.37,2013-08-08 17:13:00,
2013-08-08 13:18:00,88.2,68.9,30.02,SSW,204,8.1,8.1,53,0.00,SCT,,0.00,WeatherDisplay:10.37,2013-08-08 17:18:00,
2013-08-08 13:23:00,88.7,69.4,30.02,ESE,122,10.1,10.1,53,0.00,SCT,,0.00,WeatherDisplay:10.37,2013-08-08 17:23:00,
2013-08-08 13:28:00,88.7,69.4,30.02,ESE,123,5.8,5.8,53,0.00,SCT,,0.00,WeatherDisplay:10.37,2013-08-08 17:28:00,
2013-08-08 13:33:00,89.2,69.9,30.02,SSE,152,8.0,8.0,53,0.00,SCT,,0.00,WeatherDisplay:10.37,2013-08-08 17:33:00,
2013-08-08 13:38:00,90.0,70.5,30.02,South,175,8.1,8.1,53,0.00,SCT,,0.00,WeatherDisplay:10.37,2013-08-08 17:38:00,
2013-08-08 13:43:00,90.3,70.9,30.02,SSE,164,8.1,8.1,53,0.00,SCT,,0.00,WeatherDisplay:10.37,2013-08-08 17:43:00,
2013-08-08 13:48:00,91.4,71.9,30.02,SE,124,6.7,6.7,53,0.00,SCT,,0.00,WeatherDisplay:10.37,2013-08-08 17:48:00,
2013-08-08 13:53:00,91.2,71.7,30.02,SE,129,8.1,8.1,53,0.00,SCT,,0.00,WeatherDisplay:10.37,2013-08-08 17:53:00,
2013-08-08 13:59:00,90.7,71.2,30.02,ESE,122,8.1,8.1,53,0.00,SCT,,0.00,WeatherDisplay:10.37,2013-08-08 17:59:00,
2013-08-08 14:03:00,90.3,80.9,30.02,SW,221,8.1,8.1,74,0.00,-RA,,0.00,WeatherDisplay:10.37,2013-08-08 18:03:00,
2013-08-08 14:09:00,89.6,80.2,30.02,SW,221,6.3,6.3,74,0.00,-RA,,0.00,WeatherDisplay:10.37,2013-08-08 18:09:00,
2013-08-08 14:14:00,88.2,78.8,30.02,SW,234,5.8,5.8,74,0.00,-RA,,0.00,WeatherDisplay:10.37,2013-08-08 18:14:00,
2013-08-08 14:19:00,87.4,78.1,30.02,SW,226,5.4,5.4,74,0.00,-RA,,0.00,WeatherDisplay:10.37,2013-08-08 18:19:00,
2013-08-08 14:24:00,88.0,78.6,30.02,WSW,249,2.3,0.0,74,0.00,-RA,,0.00,WeatherDisplay:10.37,2013-08-08 18:24:00,
2013-08-08 14:29:00,88.7,79.3,30.02,WSW,243,5.8,5.8,74,0.00,-RA,,0.00,WeatherDisplay:10.37,2013-08-08 18:29:00,
2013-08-08 14:34:00,88.7,79.3,30.02,South,188,5.8,5.8,74,0.00,-RA,,0.00,WeatherDisplay:10.37,2013-08-08 18:34:00,
2013-08-08 14:39:00,89.1,79.7,30.02,SW,226,3.6,3.6,74,0.00,-RA,,0.00,WeatherDisplay:10.37,2013-08-08 18:39:00,
2013-08-08 14:44:00,90.1,80.7,30.02,SSE,147,5.8,5.8,74,0.00,-RA,,0.00,WeatherDisplay:10.37,2013-08-08 18:44:00,
2013-08-08 14:49:00,90.5,81.1,30.02,SE,124,5.8,6.3,74,0.00,-RA,,0.00,WeatherDisplay:10.37,2013-08-08 18:49:00,
2013-08-08 14:54:00,90.1,80.7,30.02,South,190,5.8,5.8,74,0.00,-RA,,0.00,WeatherDisplay:10.37,2013-08-08 18:54:00,
2013-08-08 14:59:00,90.1,80.7,30.02,ESE,122,8.1,8.1,74,0.00,-RA,,0.00,WeatherDisplay:10.37,2013-08-08 18:59:00,
2013-08-08 15:04:00,90.1,75.8,30.00,SE,137,5.8,5.8,63,0.00,SCT,,0.00,WeatherDisplay:10.37,2013-08-08 19:04:00,
2013-08-08 15:09:00,91.0,76.7,30.00,SSE,159,11.5,11.5,63,0.00,SCT,,0.00,WeatherDisplay:10.37,2013-08-08 19:09:00,
2013-08-08 15:14:00,91.2,76.9,30.00,ESE,122,11.5,11.5,63,0.00,SCT,,0.00,WeatherDisplay:10.37,2013-08-08 19:14:00,
2013-08-08 15:19:00,91.6,77.2,30.00,SSE,155,10.4,10.4,63,0.00,SCT,,0.00,WeatherDisplay:10.37,2013-08-08 19:19:00,
2013-08-08 15:24:00,91.8,77.4,30.00,SSE,156,8.1,8.1,63,0.00,SCT,,0.00,WeatherDisplay:10.37,2013-08-08 19:24:00,
2013-08-08 15:29:00,91.8,77.4,30.00,SSE,165,9.2,9.2,63,0.00,SCT,,0.00,WeatherDisplay:10.37,2013-08-08 19:29:00,
2013-08-08 15:34:00,92.3,77.9,30.00,SSW,207,8.1,8.1,63,0.00,SCT,,0.00,WeatherDisplay:10.37,2013-08-08 19:34:00,
2013-08-08 15:39:00,92.3,77.9,30.00,SSE,165,7.6,7.6,63,0.00,SCT,,0.00,WeatherDisplay:10.37,2013-08-08 19:39:00,
2013-08-08 15:44:00,91.9,77.5,30.00,SE,126,11.5,11.5,63,0.00,SCT,,0.00,WeatherDisplay:10.37,2013-08-08 19:44:00,
2013-08-08 15:49:00,92.5,78.0,30.00,SSW,200,8.1,8.1,63,0.00,SCT,,0.00,WeatherDisplay:10.37,2013-08-08 19:49:00,
2013-08-08 15:54:00,93.0,78.6,30.00,SSE,151,9.2,9.2,63,0.00,SCT,,0.00,WeatherDisplay:10.37,2013-08-08 19:54:00,
2013-08-08 15:59:00,92.7,78.2,30.00,SSE,166,8.1,8.1,63,0.00,SCT,,0.00,WeatherDisplay:10.37,2013-08-08 19:59:00,
2013-08-08 16:04:00,92.3,69.8,29.99,South,170,8.1,8.1,48,0.00,CLR,,0.00,WeatherDisplay:10.37,2013-08-08 20:04:00,
2013-08-08 16:09:00,92.1,69.6,29.99,South,174,10.4,10.4,48,0.00,CLR,,0.00,WeatherDisplay:10.37,2013-08-08 20:09:00,
2013-08-08 16:14:00,91.9,69.4,29.99,SSE,157,5.8,5.8,48,0.00,CLR,,0.00,WeatherDisplay:10.37,2013-08-08 20:14:00,
2013-08-08 16:19:00,92.3,69.8,29.99,South,180,9.2,9.2,48,0.00,CLR,,0.00,WeatherDisplay:10.37,2013-08-08 20:19:00,
2013-08-08 16:24:00,92.3,69.8,29.99,ENE,72,7.6,7.6,48,0.00,CLR,,0.00,WeatherDisplay:10.37,2013-08-08 20:24:00,
2013-08-08 16:29:00,91.9,69.4,29.99,SSE,152,8.1,8.1,48,0.00,CLR,,0.00,WeatherDisplay:10.37,2013-08-08 20:29:00,
2013-08-08 16:34:00,91.4,69.0,29.99,SSW,192,9.2,9.2,48,0.00,CLR,,0.00,WeatherDisplay:10.37,2013-08-08 20:34:00,
2013-08-08 16:39:00,91.2,68.8,29.99,SE,130,8.1,8.1,48,0.00,CLR,,0.00,WeatherDisplay:10.37,2013-08-08 20:39:00,
2013-08-08 16:44:00,91.2,68.8,29.99,SE,139,9.2,9.2,48,0.00,CLR,,0.00,WeatherDisplay:10.37,2013-08-08 20:44:00,
2013-08-08 16:49:00,91.2,68.8,29.99,South,179,8.1,8.1,48,0.00,CLR,,0.00,WeatherDisplay:10.37,2013-08-08 20:49:00,
2013-08-08 16:54:00,90.9,68.5,29.99,South,177,5.8,5.8,48,0.00,CLR,,0.00,WeatherDisplay:10.37,2013-08-08 20:54:00,
2013-08-08 16:59:00,91.2,68.8,29.99,ESE,109,6.9,6.9,48,0.00,CLR,,0.00,WeatherDisplay:10.37,2013-08-08 20:59:00,
2013-08-08 17:04:00,90.9,69.7,29.98,SSE,149,8.0,8.0,50,0.00,CLR,,0.00,WeatherDisplay:10.37,2013-08-08 21:04:00,
2013-08-08 17:09:00,90.5,69.3,29.98,SE,142,5.8,5.8,50,0.00,CLR,,0.00,WeatherDisplay:10.37,2013-08-08 21:09:00,
2013-08-08 17:14:00,90.9,69.7,29.98,SSE,155,5.8,5.8,50,0.00,CLR,,0.00,WeatherDisplay:10.37,2013-08-08 21:14:00,
2013-08-08 17:20:00,91.2,70.0,29.98,SSE,148,8.3,8.3,50,0.00,CLR,,0.00,WeatherDisplay:10.37,2013-08-08 21:20:00,
2013-08-08 17:25:00,90.9,69.7,29.98,South,188,9.2,9.2,50,0.00,CLR,,0.00,WeatherDisplay:10.37,2013-08-08 21:25:00,
2013-08-08 17:30:00,90.7,69.5,29.98,SSW,199,8.1,8.1,50,0.00,CLR,,0.00,WeatherDisplay:10.37,2013-08-08 21:30:00,
2013-08-08 17:35:00,90.9,69.7,29.98,SE,135,5.8,6.3,50,0.00,CLR,,0.00,WeatherDisplay:10.37,2013-08-08 21:35:00,
2013-08-08 17:40:00,90.4,69.2,29.98,SE,145,6.0,8.0,50,0.00,CLR,,0.00,WeatherDisplay:10.37,2013-08-08 21:40:00,
2013-08-08 17:45:00,90.3,69.2,29.98,SSE,148,6.0,9.0,50,0.00,CLR,,0.00,WeatherDisplay:10.37,2013-08-08 21:45:00,
2013-08-08 17:50:00,90.3,69.2,29.98,SSE,161,6.0,9.0,50,0.00,CLR,,0.00,WeatherDisplay:10.37,2013-08-08 21:50:00,
2013-08-08 17:55:00,90.1,69.0,29.98,South,186,5.8,5.8,50,0.00,CLR,,0.00,WeatherDisplay:10.37,2013-08-08 21:55:00,
2013-08-08 18:01:00,90.0,68.8,29.98,SE,140,8.1,8.1,50,0.00,CLR,,0.00,WeatherDisplay:10.37,2013-08-08 22:01:00,
2013-08-08 18:06:00,89.4,70.0,29.98,ESE,109,8.1,8.1,53,0.00,FEW,,0.00,WeatherDisplay:10.37,2013-08-08 22:06:00,
2013-08-08 18:11:00,88.9,69.5,29.98,SE,135,8.1,8.1,53,0.00,FEW,,0.00,WeatherDisplay:10.37,2013-08-08 22:11:00,
2013-08-08 18:16:00,88.2,68.9,29.98,SE,138,8.1,8.1,53,0.00,FEW,,0.00,WeatherDisplay:10.37,2013-08-08 22:16:00,
2013-08-08 18:21:00,87.4,68.2,29.98,SSE,155,5.8,5.8,53,0.00,FEW,,0.00,WeatherDisplay:10.37,2013-08-08 22:21:00,
2013-08-08 18:27:00,87.3,68.0,29.98,SSE,164,9.2,9.2,53,0.00,FEW,,0.00,WeatherDisplay:10.37,2013-08-08 22:27:00,
2013-08-08 18:32:00,87.3,68.0,29.98,ESE,109,10.4,10.4,53,0.00,FEW,,0.00,WeatherDisplay:10.37,2013-08-08 22:32:00,
2013-08-08 18:37:00,87.3,68.0,29.98,ESE,119,8.1,8.1,53,0.00,FEW,,0.00,WeatherDisplay:10.37,2013-08-08 22:37:00,
2013-08-08 18:42:00,86.5,67.4,29.98,SSE,149,11.5,11.5,53,0.00,FEW,,0.00,WeatherDisplay:10.37,2013-08-08 22:42:00,
2013-08-08 18:47:00,86.0,66.9,29.98,SE,136,8.1,8.1,53,0.00,FEW,,0.00,WeatherDisplay:10.37,2013-08-08 22:47:00,
2013-08-08 18:53:00,85.8,66.7,29.98,SSE,152,9.2,9.2,53,0.00,FEW,,0.00,WeatherDisplay:10.37,2013-08-08 22:53:00,
2013-08-08 18:58:00,85.8,66.7,29.98,ESE,117,10.4,10.4,53,0.00,FEW,,0.00,WeatherDisplay:10.37,2013-08-08 22:58:00,
2013-08-08 19:04:00,85.6,69.7,29.98,ESE,121,8.1,8.1,59,0.00,CLR,,0.00,WeatherDisplay:10.37,2013-08-08 23:04:00,
2013-08-08 19:09:00,85.3,69.3,29.98,SE,140,9.2,9.2,59,0.00,CLR,,0.00,WeatherDisplay:10.37,2013-08-08 23:09:00,
2013-08-08 19:14:00,85.1,69.2,29.98,SE,141,9.2,9.2,59,0.00,CLR,,0.00,WeatherDisplay:10.37,2013-08-08 23:14:00,
2013-08-08 19:19:00,84.7,68.8,29.98,SSE,165,9.2,9.2,59,0.00,CLR,,0.00,WeatherDisplay:10.37,2013-08-08 23:19:00,
2013-08-08 19:25:00,84.6,68.7,29.98,SE,140,5.0,7.0,59,0.00,CLR,,0.00,WeatherDisplay:10.37,2013-08-08 23:25:00,
2013-08-08 19:30:00,84.4,68.5,29.98,SE,137,6.0,8.0,59,0.00,CLR,,0.00,WeatherDisplay:10.37,2013-08-08 23:30:00,
2013-08-08 19:35:00,84.1,68.3,29.98,SE,134,8.0,12.0,59,0.00,CLR,,0.00,WeatherDisplay:10.37,2013-08-08 23:35:00,
2013-08-08 19:40:00,83.8,68.0,29.98,SE,135,6.0,10.0,59,0.00,CLR,,0.00,WeatherDisplay:10.37,2013-08-08 23:40:00,
2013-08-08 19:45:00,83.5,67.6,29.98,SE,136,6.0,11.0,59,0.00,CLR,,0.00,WeatherDisplay:10.37,2013-08-08 23:45:00,
2013-08-08 19:50:00,83.2,67.4,29.98,SE,140,3.0,8.0,59,0.00,CLR,,0.00,WeatherDisplay:10.37,2013-08-08 23:50:00,
2013-08-08 19:55:00,82.8,67.0,29.98,ESE,113,5.8,5.8,59,0.00,CLR,,0.00,WeatherDisplay:10.37,2013-08-08 23:55:00,
2013-08-08 20:00:00,82.6,66.8,29.98,SE,134,6.0,8.0,59,0.00,CLR,,0.00,WeatherDisplay:10.37,2013-08-09 00:00:00,
2013-08-08 20:05:00,82.2,66.5,29.98,SE,134,5.0,8.0,59,0.00,CLR,,0.00,WeatherDisplay:10.37,2013-08-09 00:05:00,
2013-08-08 20:10:00,82.0,66.3,29.98,SE,140,8.1,8.1,59,0.00,CLR,,0.00,WeatherDisplay:10.37,2013-08-09 00:10:00,
2013-08-08 20:15:00,81.7,66.0,29.98,SE,135,3.0,6.0,59,0.00,CLR,,0.00,WeatherDisplay:10.37,2013-08-09 00:15:00,
2013-08-08 20:20:00,81.5,65.8,29.98,SE,135,4.6,4.6,59,0.00,CLR,,0.00,WeatherDisplay:10.37,2013-08-09 00:20:00,
2013-08-08 20:25:00,81.3,65.6,29.98,SE,135,3.5,4.0,59,0.00,CLR,,0.00,WeatherDisplay:10.37,2013-08-09 00:25:00,
2013-08-08 20:31:00,81.1,65.5,29.98,SE,144,4.6,4.6,59,0.00,CLR,,0.00,WeatherDisplay:10.37,2013-08-09 00:31:00,
2013-08-08 20:36:00,80.8,65.1,29.98,SSE,150,8.1,8.1,59,0.00,CLR,,0.00,WeatherDisplay:10.37,2013-08-09 00:36:00,
2013-08-08 20:41:00,80.6,64.9,29.98,SE,138,3.5,3.5,59,0.00,CLR,,0.00,WeatherDisplay:10.37,2013-08-09 00:41:00,
2013-08-08 20:46:00,80.4,64.8,29.98,SE,131,4.6,4.6,59,0.00,CLR,,0.00,WeatherDisplay:10.37,2013-08-09 00:46:00,
2013-08-08 20:52:00,80.2,64.6,29.98,SE,133,3.5,3.5,59,0.00,CLR,,0.00,WeatherDisplay:10.37,2013-08-09 00:52:00,
2013-08-08 20:57:00,80.1,64.4,29.98,SE,133,3.5,0.0,59,0.00,CLR,,0.00,WeatherDisplay:10.37,2013-08-09 00:57:00,
2013-08-08 21:02:00,80.1,64.4,29.98,SE,133,0.0,0.0,59,0.00,CLR,,0.00,WeatherDisplay:10.37,2013-08-09 01:02:00,
2013-08-08 21:07:00,79.9,64.3,29.98,SE,133,0.0,0.0,59,0.00,CLR,,0.00,WeatherDisplay:10.37,2013-08-09 01:07:00,
2013-08-08 21:12:00,79.7,64.1,29.98,SE,133,3.5,0.0,59,0.00,CLR,,0.00,WeatherDisplay:10.37,2013-08-09 01:12:00,
2013-08-08 21:18:00,79.5,63.9,29.98,SE,133,0.0,0.0,59,0.00,CLR,,0.00,WeatherDisplay:10.37,2013-08-09 01:18:00,
2013-08-08 21:23:00,79.3,63.8,29.98,SE,133,0.0,0.0,59,0.00,CLR,,0.00,WeatherDisplay:10.37,2013-08-09 01:23:00,
2013-08-08 21:29:00,79.2,63.6,29.98,SE,133,3.5,3.5,59,0.00,CLR,,0.00,WeatherDisplay:10.37,2013-08-09 01:29:00,
2013-08-08 21:34:00,79.2,63.6,29.98,SE,133,0.0,0.0,59,0.00,CLR,,0.00,WeatherDisplay:10.37,2013-08-09 01:34:00,
2013-08-08 21:39:00,79.0,63.4,29.98,SE,133,0.0,0.0,59,0.00,CLR,,0.00,WeatherDisplay:10.37,2013-08-09 01:39:00,
2013-08-08 21:44:00,78.8,63.3,29.98,SE,133,3.5,0.0,59,0.00,CLR,,0.00,WeatherDisplay:10.37,2013-08-09 01:44:00,
2013-08-08 21:50:00,78.6,63.1,29.98,SE,133,0.0,0.0,59,0.00,CLR,,0.00,WeatherDisplay:10.37,2013-08-09 01:50:00,
2013-08-08 21:55:00,78.6,63.1,29.98,SE,133,0.0,3.0,59,0.00,CLR,,0.00,WeatherDisplay:10.37,2013-08-09 01:55:00,
2013-08-08 22:00:00,78.4,62.9,29.98,SE,133,0.0,0.0,59,0.00,CLR,,0.00,WeatherDisplay:10.37,2013-08-09 02:00:00,
2013-08-08 22:05:00,78.4,70.2,30.02,SE,133,0.0,0.0,76,0.00,CLR,,0.00,WeatherDisplay:10.37,2013-08-09 02:05:00,
2013-08-08 22:10:00,78.4,70.2,30.02,SE,133,0.0,0.0,76,0.00,CLR,,0.00,WeatherDisplay:10.37,2013-08-09 02:10:00,
2013-08-08 22:15:00,78.3,70.1,30.02,SE,133,0.0,0.0,76,0.00,CLR,,0.00,WeatherDisplay:10.37,2013-08-09 02:15:00,
2013-08-08 22:20:00,78.3,70.1,30.02,SE,133,0.0,0.0,76,0.00,CLR,,0.00,WeatherDisplay:10.37,2013-08-09 02:20:00,
2013-08-08 22:25:00,78.1,69.9,30.02,SE,133,0.0,0.0,76,0.00,CLR,,0.00,WeatherDisplay:10.37,2013-08-09 02:25:00,
2013-08-08 22:30:00,78.1,69.9,30.02,SE,133,0.0,0.0,76,0.00,CLR,,0.00,WeatherDisplay:10.37,2013-08-09 02:30:00,
2013-08-08 22:35:00,77.9,69.7,30.02,SE,133,0.0,0.0,76,0.00,CLR,,0.00,WeatherDisplay:10.37,2013-08-09 02:35:00,
2013-08-08 22:40:00,77.7,69.6,30.02,SE,133,0.0,0.0,76,0.00,CLR,,0.00,WeatherDisplay:10.37,2013-08-09 02:40:00,
2013-08-08 22:45:00,77.7,69.5,30.02,SE,133,0.0,0.0,76,0.00,CLR,,0.00,WeatherDisplay:10.37,2013-08-09 02:45:00,
2013-08-08 22:50:00,77.5,69.4,30.02,SE,133,0.0,0.0,76,0.00,CLR,,0.00,WeatherDisplay:10.37,2013-08-09 02:50:00,
2013-08-08 22:56:00,77.4,69.2,30.02,SE,133,0.0,0.0,76,0.00,CLR,,0.00,WeatherDisplay:10.37,2013-08-09 02:56:00,
2013-08-08 23:01:00,77.4,72.1,30.07,SE,133,0.0,0.0,84,0.00,CLR,,0.00,WeatherDisplay:10.37,2013-08-09 03:01:00,
2013-08-08 23:06:00,77.4,72.1,30.07,SE,133,0.0,0.0,84,0.00,CLR,,0.00,WeatherDisplay:10.37,2013-08-09 03:06:00,
2013-08-08 23:12:00,77.2,72.0,30.07,SE,133,0.0,0.0,84,0.00,CLR,,0.00,WeatherDisplay:10.37,2013-08-09 03:12:00,
2013-08-08 23:18:00,77.2,72.0,30.07,SE,133,0.0,0.0,84,0.00,CLR,,0.00,WeatherDisplay:10.37,2013-08-09 03:18:00,
2013-08-08 23:23:00,77.2,72.0,30.07,SE,133,0.0,0.0,84,0.00,CLR,,0.00,WeatherDisplay:10.37,2013-08-09 03:23:00,
2013-08-08 23:29:00,77.0,71.8,30.07,SE,133,0.0,0.0,84,0.00,CLR,,0.00,WeatherDisplay:10.37,2013-08-09 03:29:00,
2013-08-08 23:34:00,77.0,71.8,30.07,SE,133,0.0,0.0,84,0.00,CLR,,0.00,WeatherDisplay:10.37,2013-08-09 03:34:00,
2013-08-08 23:39:00,77.0,71.8,30.07,SE,133,0.0,0.0,84,0.00,CLR,,0.00,WeatherDisplay:10.37,2013-08-09 03:39:00,
2013-08-08 23:44:00,77.0,71.8,30.07,SE,133,0.0,0.0,84,0.00,CLR,,0.00,WeatherDisplay:10.37,2013-08-09 03:44:00,
2013-08-08 23:49:00,76.8,71.6,30.07,SE,133,0.0,0.0,84,0.00,CLR,,0.00,WeatherDisplay:10.37,2013-08-09 03:49:00,
2013-08-08 23:54:00,76.8,71.6,30.07,SE,133,0.0,0.0,84,0.00,CLR,,0.00,WeatherDisplay:10.37,2013-08-09 03:54:00,